Voltar ao catálogo

STARLINK-11432

AtivoComunicaçõesVLEO
NORAD 62882·PAYLOAD·🇺🇸 United States

Lançado Feb 4, 2025 de Cape Canaveral Space Force Station

Loading…

Próximas Passagens (próximas 24 horas)

TLE

AtualizadoSource: CelesTrak SupGP

Época: Sep 14, 2026, 21:21 UTC

1 62882C 25024D   26257.89006944 -.00057734  00000+0 -44865-3 0  2575
2 62882  43.0001 121.2375 0001520 273.8295 333.3945 15.70854876    13

Acompanhe STARLINK-11432 em tempo real com AllMySat

Download on the App Store